Flag for Mexico Weather past 2 weeks in Torreón, Coahuila, Mexico

Now
52 °F

Clear.


Feels Like: 52 °F
Forecast: 58 / 87 °F
Wind: No wind

Location: Durango Airport

Current Time: Sep 30, 2014 at 7:12:27 AM

Latest Report: Sep 30, 2014 at 6:41 AM


Visibility: 8 mi

Pressure: 29.78 "Hg

Humidity: 94%

Dew point: 50 °F

Location of TorreónLocation

Historic Weather in Torreón — Graph

°F

Torreón temperature yesterday

Maximum temperature yesterday: 81 °F (at 3:40 PM)
Minimum temperature yesterday: 52 °F (at 6:44 AM)
Average temperature yesterday: 67 °F

Past Weeks' High & Low Weather Summary

 TemperatureHumidityPressure
High81 °F (Sep 16, 4:43 PM)100% (Sep 16, 5:00 AM)30.38 "Hg (Sep 16, 5:00 AM)
Low50 °F (Sep 28, 7:40 AM)30% (Sep 29, 4:40 PM)29.63 "Hg (Sep 19, 6:46 PM)
Average67 °F70%30.09 "Hg
* Reported Sep 15 5:02 AM — Sep 30 5:43 AM, Torreón, Weather by CustomWeather, © 2014

Note: Actual official high and low records may vary slightly from our data, if they occured in-between our weather recording intervals... More about our weather records

Advertising

Torreón weather history for previous 24 hours

 ConditionsComfort  
Time TempWeatherWind HumidityBarometerVisibility
5:43 AM
Sep 30
52 °FClear.3 mph94%30.15 "Hg8 mi
4:41 AM55 °FClear.No wind88%30.15 "Hg8 mi
12:41 AM61 °FClear.No wind72%29.74 "Hg8 mi
11:43 PM
Sep 29
61 °FClear.No wind77%30.17 "Hg8 mi
10:48 PM63 °FClear.6 mph73%30.16 "Hg8 mi
9:40 PM66 °FClear.5 mph64%29.78 "Hg8 mi
8:40 PM68 °FSunny.6 mph60%30.12 "Hg8 mi
7:40 PM73 °FPartly sunny.6 mph47%30.11 "Hg14 mi
6:40 PM77 °FPartly sunny.8 mph34%29.72 "Hg14 mi
5:40 PM81 °FPartly sunny.6 mph30%30.10 "Hg14 mi
4:40 PM79 °FScattered clouds.5 mph30%30.11 "Hg14 mi
3:40 PM81 °FPassing clouds.No wind32%29.72 "Hg14 mi
2:40 PM75 °FSunny.8 mph39%30.17 "Hg14 mi
1:40 PM75 °FSunny.3 mph44%30.20 "Hg14 mi
12:43 PM73 °FSunny.3 mph47%29.82 "Hg14 mi
11:48 AM70 °FSunny.5 mph50%30.24 "Hg14 mi
10:42 AM66 °FSunny.2 mph68%30.25 "Hg14 mi
9:45 AM63 °FSunny.No wind77%29.90 "Hg14 mi
8:41 AM55 °FClear.2 mph88%30.23 "Hg14 mi
7:42 AM54 °FClear.2 mph94%30.21 "Hg12 mi
Weather by CustomWeather, © 2014

See weather overviewHow to use our weather pages